Погода в Нёвшателе

Швейцария     46°59′23″N   6°55′49″E
темп.,
°C
ветер,
м/с
пор.,
м/с
влажн.,
%
обл.,
%
осадки,
мм/ч
давл.,
гПа
погр.,
м
26 февраля, пт
пт2601:00+7юз117123 0.0 103278
04:00+6зюз017458 0.0 103148
07:00+5з017474 0.0 103249
10:00+10ююз116382 0.0 1030172
13:00+13ююз125551 0.0 1029519
16:00+13сз336498 0.0 1028761
19:00+9ссз348499 0.9 1030193
22:00+8ссз2386100 3.6 1031216
27 февраля, сб
сб2701:00+7ссв4886100 4.3 1032361
04:00+5св498799 0.5 1031586
07:00+5св6118987 0.5 1031725
10:00+5всв7138385 0.0 1031761
13:00+6всв8147562 0.0 10301044
16:00+7всв8146627 0.0 10291187
19:00+4св7147321 0.0 1031865
22:00+3св714801 0.0 1032638
28 февраля, вс
вс2801:00+2св613831 0.0 1032533
04:00+1св510906 0.0 1031415
07:00+1всв489036 0.0 1032426
10:00+3всв468090 0.0 1031451
13:00+7всв356750 0.0 1030555
16:00+8всв46630 0.0 1029694
19:00+4св47770 0.0 1030236
22:00+3св49790 0.0 1031311
1 марта, пн
пн101:00+2св23840 0.0 1031119
04:00+1св23890 0.0 1030114
07:000св23900 0.0 1030108
10:00+4вюв12750 0.0 1029267
13:00+9ююв11680 0.0 1028352
16:00+9юв12670 0.0 1027373
19:00+5св22810 0.0 1029118
22:00+4ссв11800 0.0 103066
2 марта, вт
вт201:00+3зюз01850 0.0 103156
04:00+2сз01890 0.0 103170
07:00+2ссз01910 0.0 103159
10:00+6ю11710 0.0 1031206
13:00+10ююз12497 0.0 1030304
16:00+11ю01470 0.0 1029243
19:00+7ссз11620 0.0 103054
22:00+6ссз01710 0.0 103242